Weather History for Macomb, IL

Change the Weather History Date:

Sunday, March 17, 2013

  Actual Average (KBRL) Record (KBRL)
Temperature  
Mean Temperature 34 °F 42 °F  
Max Temperature 38 °F 52 °F 82 °F (2012)
Min Temperature 29 °F 32 °F 0 °F (1906)
Degree Days  
Heating Degree Days 32 23  
Month to date heating degree days 451  
Since 1 July heating degree days 4829  
Cooling Degree Days 0 0  
Month to date cooling degree days 0  
Year to date cooling degree days 0  
Moisture  
Dew Point 28 °F    
Average Humidity 80    
Maximum Humidity 93    
Minimum Humidity 68    
Precipitation  
Precipitation 0.00 in 0.10 in 1.15 in (1998)
Month to date precipitation 1.48  
Year to date precipitation 4.34  
Sea Level Pressure  
Sea Level Pressure 30.07 in    
Wind  
Wind Speed 12 mph (ENE)    
Max Wind Speed 18 mph    
Max Gust Speed 24 mph    
Visibility 10 miles    
Events Snow    
T = Trace of Precipitation, MM = Missing Value Source: NWS Daily Summary

Daily Weather History Graph

Daily Weather History Graph

Search for Another Location

Airport:

Trip Planner

Search our weather history database for the weather conditions in past years. The results will help you decide how hot, cold, wet, or windy it might be!

Date:

Astronomy

Mar. 17, 2013 Rise Set
Actual Time 7:10 AM CDT 7:11 PM CDT
Civil Twilight 6:43 AM CDT 7:39 PM CDT
Nautical Twilight 6:11 AM CDT 8:10 PM CDT
Astronomical Twilight 5:39 AM CDT 8:43 PM CDT
Moon 10:22 AM CDT (3/17) 12:21 AM CDT (3/17)
Length of Visible Light 12h 55m
Length of Day
12h 01m
Waxing Crescent, 31% of the Moon is Illuminated
Mar 17
Waxing Crescent
Mar 19
First Quarter
Mar 27
Full
Apr 2
Last Quarter
Apr 10
New

Hourly Weather History & Observations

Time (CDT) Temp. Windchill Dew Point Humidity Pressure Visibility Wind Dir Wind Speed Gust Speed Precip Events Conditions
12:15 AM 32.9 °F 24.1 °F 30.6 °F 91% 30.13 in 10.0 mi North 11.5 mph - N/A   Overcast
12:35 AM 32.5 °F 24.2 °F 29.8 °F 90% 30.13 in 10.0 mi North 10.4 mph - N/A   Overcast
12:55 AM 32.4 °F 24.0 °F 29.3 °F 88% 30.13 in 10.0 mi North 10.4 mph - N/A   Overcast
1:15 AM 32.2 °F 23.8 °F 29.3 °F 89% 30.13 in 10.0 mi North 10.4 mph - N/A   Overcast
1:35 AM 32.0 °F 23.6 °F 29.8 °F 92% 30.12 in 10.0 mi North 10.4 mph - N/A   Overcast
1:55 AM 32.0 °F 24.8 °F 30.2 °F 93% 30.12 in 10.0 mi North 8.1 mph - N/A   Overcast
2:15 AM 32.0 °F 23.6 °F 29.7 °F 91% 30.12 in 10.0 mi NNE 10.4 mph - N/A   Overcast
2:35 AM 32.0 °F 24.8 °F 28.8 °F 88% 30.13 in 10.0 mi North 8.1 mph - N/A   Overcast
2:55 AM 31.8 °F 22.8 °F 28.2 °F 87% 30.13 in 10.0 mi North 11.5 mph - N/A   Overcast
3:15 AM 31.6 °F 22.6 °F 28.2 °F 87% 30.12 in 10.0 mi NNE 11.5 mph - N/A   Overcast
3:35 AM 31.1 °F 21.9 °F 26.4 °F 83% 30.12 in 10.0 mi NNE 11.5 mph - N/A   Overcast
3:55 AM 31.1 °F 22.4 °F 26.1 °F 82% 30.13 in 10.0 mi NNE 10.4 mph - N/A   Overcast
4:15 AM 30.9 °F 22.2 °F 26.4 °F 83% 30.13 in 10.0 mi NNE 10.4 mph - N/A   Overcast
4:35 AM 30.6 °F 23.1 °F 25.9 °F 83% 30.13 in 10.0 mi NNE 8.1 mph - N/A   Mostly Cloudy
4:55 AM 30.2 °F 21.3 °F 25.7 °F 83% 30.13 in 10.0 mi NNE 10.4 mph - N/A   Overcast
5:15 AM 30.2 °F 21.3 °F 26.1 °F 85% 30.13 in 10.0 mi NNE 10.4 mph - N/A   Mostly Cloudy
5:35 AM 30.2 °F 21.9 °F 26.4 °F 86% 30.13 in 10.0 mi NE 9.2 mph - N/A   Overcast
5:55 AM 30.2 °F 20.8 °F 26.6 °F 86% 30.14 in 10.0 mi NE 11.5 mph - N/A   Overcast
6:15 AM 30.2 °F 20.8 °F 27.0 °F 88% 30.15 in 10.0 mi NE 11.5 mph - N/A   Overcast
6:35 AM 30.2 °F 21.3 °F 26.6 °F 86% 30.16 in 10.0 mi NE 10.4 mph - N/A   Overcast
6:55 AM 30.2 °F 18.9 °F 25.5 °F 83% 30.16 in 10.0 mi ENE 16.1 mph - N/A   Overcast
7:15 AM 30.0 °F 19.5 °F 25.5 °F 83% 30.16 in 10.0 mi ENE 13.8 mph - N/A   Overcast
7:35 AM 29.8 °F 19.3 °F 25.2 °F 83% 30.16 in 10.0 mi NE 13.8 mph - N/A   Overcast
7:55 AM 29.7 °F 20.1 °F 24.3 °F 80% 30.17 in 10.0 mi ENE 11.5 mph - N/A   Overcast
8:15 AM 29.3 °F 18.6 °F 23.5 °F 79% 30.17 in 10.0 mi ENE 13.8 mph - N/A   Overcast
8:35 AM 29.3 °F 19.1 °F 23.9 °F 80% 30.17 in 10.0 mi NE 12.7 mph - N/A   Overcast
8:55 AM 29.3 °F 19.1 °F 24.4 °F 82% 30.17 in 10.0 mi ENE 12.7 mph - N/A   Overcast
9:15 AM 29.3 °F 18.6 °F 24.8 °F 83% 30.17 in 10.0 mi ENE 13.8 mph - N/A   Overcast
9:35 AM 30.4 °F 20.5 °F 25.7 °F 83% 30.17 in 10.0 mi ENE 12.7 mph - N/A   Overcast
9:55 AM 30.9 °F 21.7 °F 25.5 °F 80% 30.17 in 10.0 mi ENE 11.5 mph - N/A   Overcast
10:15 AM 31.1 °F 21.9 °F 25.5 °F 80% 30.17 in 10.0 mi East 11.5 mph - N/A   Overcast
10:35 AM 31.8 °F 22.3 °F 25.2 °F 76% 30.17 in 10.0 mi East 12.7 mph - N/A   Overcast
10:55 AM 32.0 °F 22.5 °F 24.8 °F 75% 30.16 in 10.0 mi East 12.7 mph - N/A   Overcast
11:15 AM 32.0 °F 21.6 °F 25.9 °F 78% 30.16 in 10.0 mi East 15.0 mph 18.4 mph N/A   Overcast
11:35 AM 32.4 °F 21.7 °F 25.9 °F 77% 30.16 in 10.0 mi East 16.1 mph - N/A   Overcast
11:55 AM 33.1 °F 23.4 °F 26.6 °F 77% 30.14 in 10.0 mi East 13.8 mph 18.4 mph N/A   Overcast
12:15 PM 33.6 °F 24.1 °F 26.2 °F 74% 30.13 in 10.0 mi East 13.8 mph - N/A   Overcast
12:35 PM 34.9 °F 24.9 °F 27.5 °F 74% 30.12 in 10.0 mi East 16.1 mph 23.0 mph N/A   Overcast
12:55 PM 35.6 °F 25.5 °F 28.0 °F 74% 30.12 in 10.0 mi East 17.3 mph - N/A   Overcast
1:15 PM 34.9 °F 24.9 °F 27.1 °F 73% 30.10 in 10.0 mi East 16.1 mph 19.6 mph N/A   Overcast
1:35 PM 36.0 °F 26.3 °F 28.2 °F 73% 30.09 in 10.0 mi East 16.1 mph 20.7 mph N/A   Overcast
1:55 PM 35.8 °F 26.5 °F 28.0 °F 73% 30.09 in 10.0 mi East 15.0 mph - N/A   Mostly Cloudy
2:15 PM 36.1 °F 25.9 °F 28.2 °F 73% 30.08 in 10.0 mi East 18.4 mph - N/A   Mostly Cloudy
2:35 PM 37.2 °F 28.7 °F 28.8 °F 71% 30.06 in 10.0 mi East 13.8 mph 21.9 mph N/A   Mostly Cloudy
2:55 PM 37.2 °F 30.0 °F 28.2 °F 70% 30.05 in 10.0 mi ESE 10.4 mph - N/A   Mostly Cloudy
3:15 PM 37.9 °F 30.9 °F 28.4 °F 69% 30.04 in 10.0 mi East 10.4 mph 17.3 mph N/A   Scattered Clouds
3:35 PM 38.5 °F 30.3 °F 28.6 °F 68% 30.03 in 10.0 mi ESE 13.8 mph 19.6 mph N/A   Scattered Clouds
3:55 PM 38.5 °F 29.9 °F 29.3 °F 70% 30.03 in 10.0 mi ESE 15.0 mph 20.7 mph N/A   Scattered Clouds
4:15 PM 38.3 °F 29.3 °F 28.4 °F 68% 30.02 in 10.0 mi ESE 16.1 mph 21.9 mph N/A   Scattered Clouds
4:35 PM 38.1 °F 29.5 °F 29.1 °F 70% 30.01 in 10.0 mi ESE 15.0 mph - N/A   Scattered Clouds
4:55 PM 37.9 °F 28.5 °F 28.9 °F 70% 30.01 in 10.0 mi East 17.3 mph - N/A   Scattered Clouds
5:15 PM 37.4 °F 28.5 °F 29.1 °F 72% 30.00 in 10.0 mi East 15.0 mph - N/A   Scattered Clouds
5:35 PM 37.0 °F 27.4 °F 29.5 °F 74% 30.00 in 10.0 mi East 17.3 mph 21.9 mph N/A   Scattered Clouds
5:55 PM 36.7 °F 26.6 °F 29.1 °F 74% 29.99 in 10.0 mi East 18.4 mph 24.2 mph N/A   Mostly Cloudy
6:15 PM 36.5 °F 26.7 °F 29.1 °F 75% 29.99 in 10.0 mi East 17.3 mph 21.9 mph N/A   Overcast
6:35 PM 36.1 °F 27.7 °F 29.3 °F 76% 29.99 in 10.0 mi East 12.7 mph 20.7 mph N/A   Overcast
6:55 PM 35.8 °F 25.7 °F 29.1 °F 77% 29.98 in 10.0 mi East 17.3 mph - N/A   Overcast
7:15 PM 35.6 °F 25.9 °F 29.8 °F 80% 29.97 in 10.0 mi East 16.1 mph - N/A   Overcast
7:35 PM 35.2 °F 27.1 °F 29.8 °F 81% 29.96 in 10.0 mi East 11.5 mph - N/A   Overcast
7:55 PM 35.1 °F 25.5 °F 29.7 °F 81% 29.97 in 10.0 mi East 15.0 mph - N/A   Overcast
8:15 PM 34.9 °F 25.7 °F 30.0 °F 82% 29.96 in 10.0 mi East 13.8 mph - N/A   Overcast
8:35 PM 34.7 °F 25.9 °F 30.0 °F 83% 29.95 in 10.0 mi East 12.7 mph - N/A   Overcast
8:55 PM 34.7 °F 25.5 °F 29.8 °F 82% 29.96 in 10.0 mi East 13.8 mph - N/A   Overcast
9:15 PM 34.7 °F 24.7 °F 29.7 °F 82% 29.95 in 10.0 mi East 16.1 mph - N/A   Overcast
9:35 PM 34.3 °F 24.6 °F 29.5 °F 82% 29.95 in 10.0 mi East 15.0 mph 20.7 mph N/A   Overcast
9:55 PM 34.0 °F 24.2 °F 29.8 °F 85% 29.93 in 10.0 mi East 15.0 mph - N/A   Overcast
10:15 PM 34.0 °F 24.6 °F 30.0 °F 85% 29.92 in 10.0 mi East 13.8 mph - N/A   Overcast
10:35 PM 34.0 °F 24.2 °F 30.2 °F 86% 29.92 in 10.0 mi East 15.0 mph - N/A   Overcast
10:55 PM 34.2 °F 24.8 °F 30.2 °F 85% 29.91 in 10.0 mi East 13.8 mph - N/A   Overcast
11:15 PM 34.0 °F 24.2 °F 30.7 °F 88% 29.90 in 7.0 mi East 15.0 mph - N/A Snow Light Snow
11:35 PM 34.3 °F 24.6 °F 30.6 °F 86% 29.89 in 10.0 mi East 15.0 mph - N/A   Overcast
11:55 PM 34.3 °F 24.6 °F 30.2 °F 85% 29.88 in 10.0 mi East 15.0 mph - N/A   Overcast